Change the Weather History Date:

Wednesday, February 13, 2013

  Actual Average Record
Temperature  
Mean Temperature 24 °F -  
Max Temperature 32 °F 23 °F 44 °F (2011)
Min Temperature 17 °F 5 °F -14 °F (2000)
Degree Days  
Heating Degree Days 40    
Moisture  
Dew Point 24 °F    
Average Humidity 90    
Maximum Humidity 100    
Minimum Humidity 80    
Precipitation  
Precipitation 0.05 in - - ()
Sea Level Pressure  
Sea Level Pressure 29.63 in    
Wind  
Wind Speed 3 mph (WNW)    
Max Wind Speed 10 mph    
Max Gust Speed -    
Visibility 8 miles    
Events Snow    
Averages and records for this station are not official NWS values.
T = Trace of Precipitation, MM = Missing Value Source: NWS Daily Summary

Daily Weather History Graph

Daily Weather History Graph

Search for Another Location

Airport or City:

Trip Planner

Search our weather history database for the weather conditions in past years. The results will help you decide how hot, cold, wet, or windy it might be!

Date:

Astronomy

Feb. 13, 2013 Rise Set
Actual Time 7:25 AM CST 5:42 PM CST
Civil Twilight 6:54 AM CST 6:13 PM CST
Nautical Twilight 6:18 AM CST 6:48 PM CST
Astronomical Twilight 5:44 AM CST 7:23 PM CST
Moon 8:38 AM CST (2/13) 10:04 PM CST (2/13)
Length of Visible Light 11h 19m
Length of Day
10h 17m
Waxing Crescent, 14% of the Moon is Illuminated
Feb 13
Waxing Crescent
Feb 17
First Quarter
Feb 25
Full
Mar 4
Last Quarter
Mar 11
New

Hourly Weather History & Observations

Time (CST) Temp. Windchill Dew Point Humidity Pressure Visibility Wind Dir Wind Speed Gust Speed Precip Events Conditions
12:13 AM 21.2 °F 13.6 °F 19.4 °F 93% 29.73 in 10.0 mi West 5.8 mph - N/A   Overcast
12:33 AM 21.2 °F 14.9 °F 19.4 °F 93% 29.73 in 10.0 mi West 4.6 mph - N/A   Overcast
12:53 AM 19.4 °F 12.8 °F 17.6 °F 93% 29.72 in 10.0 mi West 4.6 mph - N/A   Mostly Cloudy
1:13 AM 19.4 °F - 17.6 °F 93% 29.72 in 10.0 mi Calm Calm - N/A   Overcast
1:33 AM 19.4 °F - 17.6 °F 93% 29.72 in 10.0 mi Calm Calm - N/A   Overcast
2:13 AM 19.4 °F 11.5 °F 17.6 °F 93% 29.71 in 10.0 mi West 5.8 mph - N/A   Scattered Clouds
2:33 AM 19.4 °F 10.4 °F 17.6 °F 93% 29.71 in 10.0 mi West 6.9 mph - N/A   Clear
2:53 AM 17.6 °F 12.3 °F 15.8 °F 93% 29.71 in 10.0 mi West 3.5 mph - N/A   Scattered Clouds
3:13 AM 21.2 °F 10.1 °F 19.4 °F 93% 29.71 in 10.0 mi West 10.4 mph - N/A   Overcast
3:33 AM 21.2 °F 10.9 °F 19.4 °F 93% 29.70 in 10.0 mi West 9.2 mph - N/A   Overcast
3:53 AM 23.0 °F 13.9 °F 19.4 °F 86% 29.70 in 10.0 mi West 8.1 mph - N/A   Overcast
4:13 AM 23.0 °F 13.9 °F 19.4 °F 86% 29.69 in 10.0 mi West 8.1 mph - N/A   Overcast
4:33 AM 23.0 °F 18.4 °F 19.4 °F 86% 29.68 in 10.0 mi West 3.5 mph - N/A   Overcast
4:54 AM 23.0 °F - 19.4 °F 86% 29.67 in 10.0 mi Calm Calm - N/A   Overcast
5:13 AM 24.8 °F 17.9 °F 21.2 °F 86% 29.68 in 10.0 mi West 5.8 mph - N/A   Overcast
5:33 AM 24.8 °F - 21.2 °F 86% 29.67 in 10.0 mi Calm Calm - N/A   Overcast
5:54 AM 24.8 °F - 21.2 °F 86% 29.67 in 10.0 mi Calm Calm - N/A   Overcast
6:13 AM 24.8 °F - 21.2 °F 86% 29.66 in 10.0 mi Calm Calm - N/A   Overcast
6:33 AM 24.8 °F - 21.2 °F 86% 29.66 in 10.0 mi Calm Calm - N/A   Overcast
6:53 AM 23.0 °F - 19.4 °F 86% 29.65 in 10.0 mi Calm Calm - N/A   Scattered Clouds
7:13 AM 21.2 °F - 19.4 °F 93% 29.65 in 10.0 mi Calm Calm - N/A   Clear
7:34 AM 17.6 °F - 17.6 °F 100% 29.65 in 10.0 mi Calm Calm - N/A   Clear
7:53 AM 19.4 °F - 19.4 °F 100% 29.65 in 7.0 mi Calm Calm - N/A   Clear
8:13 AM 19.4 °F - 19.4 °F 100% 29.64 in 10.0 mi Calm Calm - N/A   Clear
8:34 AM 19.4 °F 14.3 °F 17.6 °F 93% 29.64 in 7.0 mi WSW 3.5 mph - N/A   Clear
8:53 AM 23.0 °F - 19.4 °F 86% 29.63 in 10.0 mi Calm Calm - N/A   Clear
9:13 AM 24.8 °F 19.1 °F 21.2 °F 86% 29.63 in 10.0 mi WSW 4.6 mph - N/A   Clear
9:34 AM 26.6 °F - 21.2 °F 80% 29.63 in 10.0 mi Calm Calm - N/A   Clear
9:53 AM 26.6 °F - 23.0 °F 86% 29.63 in 10.0 mi Calm Calm - N/A   Clear
10:13 AM 28.4 °F - 23.0 °F 80% 29.62 in 10.0 mi Calm Calm - N/A   Clear
10:34 AM 28.4 °F - 23.0 °F 80% 29.62 in 10.0 mi Calm Calm - 0.01 in   Clear
10:53 AM 28.4 °F - 23.0 °F 80% 29.62 in 10.0 mi Calm Calm - 0.01 in   Clear
11:13 AM 28.4 °F - 24.8 °F 86% 29.62 in 10.0 mi Calm Calm - N/A   Clear
11:33 AM 30.2 °F 26.7 °F 24.8 °F 80% 29.62 in 10.0 mi NW 3.5 mph - N/A   Clear
11:53 AM 30.2 °F - 24.8 °F 80% 29.62 in 10.0 mi Calm Calm - N/A   Scattered Clouds
12:14 PM 30.2 °F 26.7 °F 24.8 °F 80% 29.61 in 10.0 mi NW 3.5 mph - N/A   Scattered Clouds
12:33 PM 30.2 °F - 24.8 °F 80% 29.60 in 10.0 mi Calm Calm - N/A   Clear
12:53 PM 30.2 °F - 24.8 °F 80% 29.59 in 10.0 mi Calm Calm - N/A   Scattered Clouds
1:14 PM 30.2 °F - 26.6 °F 86% 29.59 in 10.0 mi Calm Calm - N/A   Overcast
1:33 PM 30.2 °F - 24.8 °F 80% 29.59 in 10.0 mi Calm Calm - N/A   Mostly Cloudy
1:53 PM 30.2 °F - 26.6 °F 86% 29.58 in 10.0 mi Calm Calm - N/A   Scattered Clouds
2:13 PM 30.2 °F - 26.6 °F 86% 29.58 in 10.0 mi Calm Calm - N/A   Scattered Clouds
2:33 PM 30.2 °F - 24.8 °F 80% 29.57 in 10.0 mi Calm Calm - N/A   Mostly Cloudy
2:54 PM 30.2 °F - 26.6 °F 86% 29.57 in 10.0 mi Calm Calm - N/A   Mostly Cloudy
3:13 PM 30.2 °F - 26.6 °F 86% 29.57 in 10.0 mi Calm Calm - N/A   Mostly Cloudy
3:33 PM 32.0 °F - 26.6 °F 80% 29.57 in 7.0 mi Calm Calm - N/A Snow Light Snow
3:54 PM 30.2 °F - 26.6 °F 86% 29.57 in 4.0 mi Calm Calm - N/A   Overcast
4:13 PM 30.2 °F - 28.4 °F 93% 29.57 in 1.8 mi Calm Calm - N/A   Overcast
4:34 PM 30.2 °F - 28.4 °F 93% 29.57 in 2.0 mi Calm Calm - N/A Snow Light Snow
4:53 PM 30.2 °F - 28.4 °F 93% 29.57 in 1.8 mi Calm Calm - N/A Snow Light Snow
5:13 PM 30.2 °F - 28.4 °F 93% 29.57 in 1.2 mi Calm Calm - N/A Snow Light Snow
5:34 PM 30.2 °F - 30.2 °F 100% 29.57 in 1.2 mi Calm Calm - N/A Snow Light Snow
5:53 PM 30.2 °F - 28.4 °F 93% 29.57 in 1.8 mi Calm Calm - 0.01 in   Overcast
6:13 PM 30.2 °F - 28.4 °F 93% 29.57 in 2.0 mi Calm Calm - N/A Snow Light Snow
6:34 PM 28.4 °F - 28.4 °F 100% 29.58 in 1.8 mi Calm Calm - 0.01 in Snow Light Snow
6:53 PM 28.4 °F - 28.4 °F 100% 29.58 in 2.0 mi Calm Calm - 0.01 in Snow Light Snow
7:13 PM 28.4 °F - 28.4 °F 100% 29.59 in 1.5 mi Calm Calm - 0.01 in Snow Light Snow
7:34 PM 28.4 °F - 28.4 °F 100% 29.59 in 1.8 mi Calm Calm - 0.01 in Snow Light Snow
7:53 PM 28.4 °F - 28.4 °F 100% 29.59 in 1.8 mi Calm Calm - 0.01 in Snow Light Snow
8:13 PM 28.4 °F - 28.4 °F 100% 29.60 in 2.5 mi Calm Calm - 0.01 in Snow Light Snow
8:34 PM 28.4 °F - 28.4 °F 100% 29.61 in 3.0 mi Calm Calm - 0.01 in   Overcast
8:53 PM 28.4 °F 21.2 °F 28.4 °F 100% 29.61 in 3.0 mi North 6.9 mph - 0.01 in Snow Light Snow
9:13 PM 28.4 °F 23.3 °F 28.4 °F 100% 29.62 in 2.5 mi North 4.6 mph - N/A Snow Light Snow
9:33 PM 28.4 °F 23.3 °F 26.6 °F 93% 29.62 in 4.0 mi North 4.6 mph - N/A Snow Light Snow
9:53 PM 28.4 °F 21.2 °F 26.6 °F 93% 29.63 in 2.5 mi North 6.9 mph - N/A Snow Light Snow
10:14 PM 28.4 °F 23.3 °F 26.6 °F 93% 29.63 in 2.5 mi North 4.6 mph - N/A Snow Light Snow
10:33 PM 28.4 °F 21.2 °F 26.6 °F 93% 29.64 in 2.5 mi North 6.9 mph - N/A Snow Light Snow
10:53 PM 28.4 °F 22.2 °F 26.6 °F 93% 29.64 in 5.0 mi North 5.8 mph - N/A Snow Light Snow
11:14 PM 26.6 °F - 26.6 °F 100% 29.65 in 10.0 mi Calm Calm - N/A   Overcast
11:33 PM 26.6 °F 21.2 °F 24.8 °F 93% 29.66 in 10.0 mi NNW 4.6 mph - N/A   Mostly Cloudy
11:53 PM 23.0 °F 14.7 °F 21.2 °F 93% 29.66 in 10.0 mi NNW 6.9 mph - N/A   Scattered Clouds